Theta_e
319 317 312 309 310 312 313 313 312 312 312 314 319 324 325 321 320 320 319 319 321 321 318 317 317 316 316 315 315 315 316 316 315 316 317 317 317 318 318 319 320 320 320 319 319 319 318 318 318 318 318 318 317 318 318 318 321 322 320 322 325 326 325 319 316 319 321 322 323 322 324 323 321 321 321 323 321 318 318 317 318 318 315 318 319 315 329
319 318 314 309 310 312 313 313 312 313 314 314 319 326 325 321 321 320 319 319 320 320 318 317 316 316 316 315 315 315 315 316 316 316 318 318 317 318 319 319 320 320 320 320 320 319 318 318 319 319 319 318 318 318 318 319 322 322 322 324 324 325 326 322 316 316 317 318 319 319 320 321 320 321 322 325 324 323 322 320 321 319 315 318 317 314 328
319 319 315 309 309 311 313 313 313 314 315 315 319 327 324 320 321 319 319 319 319 318 317 317 316 316 316 315 315 316 315 316 317 317 318 318 317 318 319 319 319 320 319 320 319 319 318 318 319 320 319 318 317 317 317 320 323 326 327 327 324 323 327 326 319 315 314 315 316 316 317 319 321 323 325 325 324 323 321 318 317 316 316 318 316 316 333
318 319 316 310 309 311 312 313 313 313 315 315 320 326 324 320 320 318 318 318 316 317 316 316 316 316 316 316 315 316 316 316 316 317 318 318 318 318 319 319 319 319 319 320 319 319 319 319 320 320 319 318 317 317 317 318 322 329 330 326 324 326 327 327 324 319 318 320 322 323 323 319 318 321 324 324 325 326 324 317 313 315 317 318 319 321 334
318 319 317 311 309 310 312 313 313 314 315 316 320 325 323 320 320 319 319 317 316 318 317 315 317 316 316 317 316 315 316 315 316 316 317 318 318 318 318 318 319 320 320 320 319 319 319 319 320 320 320 320 318 317 317 317 322 330 328 322 324 327 323 325 326 323 323 326 328 329 327 323 320 322 324 325 327 328 323 317 318 322 317 315 324 326 326
317 319 318 312 308 310 312 312 313 314 315 316 320 325 322 320 322 322 322 319 316 317 319 317 316 316 316 317 316 315 316 316 316 316 317 317 317 317 318 317 317 319 320 320 319 321 321 320 321 321 319 320 319 317 317 317 320 325 323 320 326 326 321 322 324 322 325 328 329 330 331 329 329 329 327 328 329 328 323 322 331 336 323 321 335 339 331
317 319 319 313 308 310 311 312 314 313 314 318 324 326 324 323 324 323 322 321 320 321 322 320 316 316 318 317 317 316 316 316 315 315 316 317 316 316 318 318 317 317 319 320 321 321 320 320 322 322 320 320 320 319 318 317 318 320 320 322 326 325 324 327 324 320 324 327 329 331 331 329 330 332 333 334 334 333 333 334 340 343 337 336 346 350 346
317 318 320 315 308 309 311 312 313 313 313 320 325 326 326 326 326 326 324 323 323 323 321 319 316 317 320 319 317 316 316 316 316 315 316 318 317 316 317 318 316 316 318 320 320 321 320 321 321 321 321 321 321 320 319 317 318 320 320 323 325 324 327 335 331 319 320 325 327 329 330 328 327 329 333 336 337 337 339 341 343 343 344 347 349 349 350
317 317 320 317 309 308 311 311 313 313 315 321 323 322 325 327 326 327 328 325 324 323 320 318 317 317 317 318 317 316 315 316 316 316 315 317 318 317 317 317 316 316 317 318 318 317 318 319 319 318 319 319 319 320 319 317 318 320 321 323 325 323 326 332 329 318 316 321 323 324 326 326 324 324 328 333 336 338 339 341 343 343 345 346 342 341 344
317 317 320 320 313 308 309 311 312 313 316 321 322 320 323 327 326 327 330 327 324 322 319 317 318 317 317 318 318 316 316 316 316 317 316 316 317 317 317 317 317 316 317 317 316 315 316 317 316 316 317 317 317 318 318 317 317 319 320 322 325 326 326 327 325 318 316 319 322 322 321 321 321 322 325 330 337 340 340 340 342 342 344 344 339 339 346
318 317 319 321 317 310 308 310 312 313 317 321 322 320 321 325 328 329 329 326 323 320 318 317 317 317 317 317 317 317 316 316 317 318 317 316 316 315 316 317 317 317 317 317 316 315 315 315 315 316 317 317 317 317 318 317 317 317 319 321 325 327 327 328 327 320 317 321 323 321 319 319 321 323 324 327 334 339 338 338 341 342 342 343 342 344 347
318 317 318 321 321 315 310 309 310 312 316 320 323 323 321 323 328 331 329 326 322 320 318 317 318 318 316 316 317 317 316 316 316 317 318 316 315 314 314 315 316 316 316 316 316 315 315 316 316 317 316 317 317 317 317 317 317 317 317 319 324 327 326 327 326 322 321 322 321 318 319 322 323 324 325 324 328 336 337 336 339 341 340 340 343 344 344
318 318 318 319 322 320 313 309 309 311 314 319 324 324 321 321 326 329 330 327 322 319 319 317 317 317 315 316 317 316 316 316 316 316 317 317 316 314 314 315 316 316 315 316 317 316 316 317 317 318 318 317 318 317 316 316 317 317 316 317 322 326 327 325 324 323 322 320 318 319 324 326 324 325 327 324 326 333 334 333 335 339 338 340 343 344 345
318 319 319 319 321 322 317 310 309 310 311 317 322 323 321 321 324 327 329 328 323 321 320 318 316 316 316 316 316 316 316 316 317 318 317 317 316 315 314 314 316 316 316 317 317 317 318 318 317 318 319 318 318 318 318 317 316 316 317 318 319 324 327 325 322 323 322 319 319 323 325 326 327 328 327 326 326 329 330 330 332 336 338 339 343 344 344
317 318 320 320 320 322 320 313 308 309 311 314 321 323 323 322 323 324 328 329 325 322 320 319 317 316 317 317 316 317 317 317 318 318 317 317 317 315 314 315 317 317 317 318 318 318 318 317 316 315 316 317 317 318 318 317 316 315 317 319 319 322 326 326 323 322 323 320 321 323 323 324 328 328 325 325 324 324 327 329 329 332 335 338 341 343 343
317 318 319 320 320 321 321 315 309 309 310 312 319 324 324 321 320 324 327 327 326 323 320 321 321 318 317 318 318 318 318 318 318 318 318 318 317 315 315 317 318 318 319 319 319 318 317 317 315 314 315 317 316 316 317 316 315 315 317 320 320 320 324 326 322 321 322 320 319 320 322 325 328 328 325 324 323 323 326 327 326 328 333 336 339 341 342
316 317 318 319 319 320 321 317 310 308 309 311 317 323 325 321 319 322 325 324 324 323 320 320 321 319 318 318 318 319 320 319 319 319 320 320 318 316 316 317 317 318 319 319 319 318 317 317 315 313 316 319 317 316 317 316 315 315 317 318 321 321 322 322 319 318 320 320 318 319 324 327 328 326 325 323 322 323 323 323 323 326 330 333 337 339 341
316 317 318 319 319 319 321 319 312 308 310 310 312 319 324 322 318 319 322 322 322 323 321 319 320 320 319 319 319 319 320 319 319 320 321 320 319 318 317 317 317 318 319 320 320 319 318 318 317 314 316 320 320 318 318 317 315 316 318 318 319 320 320 319 317 316 317 318 318 320 324 326 325 325 325 325 324 323 322 323 324 325 328 331 335 337 339
315 317 318 319 319 318 320 320 314 308 309 310 310 316 322 322 319 319 321 320 320 322 321 319 320 320 319 320 320 320 320 320 321 320 320 321 321 320 318 318 318 319 319 320 321 320 319 319 319 318 316 319 321 319 318 318 318 319 319 319 318 317 317 317 316 316 316 317 317 319 323 325 325 325 328 328 327 325 323 326 327 326 327 330 332 334 337
315 317 318 318 318 318 319 319 315 309 309 310 310 314 320 320 318 318 319 319 320 321 320 319 320 320 320 319 320 319 318 320 321 320 321 322 322 320 318 319 320 319 319 320 320 320 319 318 320 319 318 318 320 320 318 319 321 321 321 320 318 317 316 315 316 318 317 315 315 318 323 325 326 328 329 329 328 326 325 327 328 327 328 329 331 332 334
316 317 318 318 318 318 318 319 316 310 309 310 309 312 318 319 316 313 315 317 319 320 320 319 319 320 321 321 321 321 320 320 320 320 320 322 322 322 321 321 321 320 319 320 320 320 320 320 320 320 320 320 321 320 320 320 321 322 323 322 321 320 318 315 317 319 317 315 316 321 323 324 325 327 328 326 326 325 326 327 327 327 328 329 331 332 332
316 317 318 318 318 318 318 320 317 311 309 310 309 312 318 320 315 311 313 318 320 320 319 319 318 320 322 322 322 323 323 322 321 321 321 321 322 322 322 322 322 322 322 321 320 320 320 321 320 320 320 320 320 321 321 320 319 321 322 322 322 323 323 321 321 321 321 320 322 324 324 324 324 325 326 326 324 324 325 326 325 326 327 329 331 333 332
316 317 318 318 317 318 318 319 318 313 310 309 309 313 318 320 315 313 316 320 321 320 319 319 320 321 321 321 321 321 321 320 321 322 322 321 321 321 321 322 323 323 323 323 324 322 320 321 322 321 321 321 320 321 321 319 319 321 321 322 323 323 324 325 325 323 323 324 325 325 325 325 324 323 324 325 324 323 323 325 325 326 328 329 331 332 331
315 316 318 318 317 317 317 318 318 314 310 309 310 312 315 316 313 314 319 321 319 318 319 319 320 320 321 321 320 319 319 319 319 320 320 321 321 321 321 322 322 323 324 325 326 324 322 322 322 321 322 323 321 320 320 319 320 321 320 321 323 323 322 324 324 323 322 324 326 326 326 326 325 324 324 325 324 323 323 324 324 326 328 329 330 332 331
315 316 317 318 317 317 317 317 317 314 309 309 310 311 315 317 314 314 319 320 317 318 320 318 319 322 321 320 320 320 318 318 318 318 318 320 320 320 322 323 323 325 326 325 324 323 321 322 321 320 322 324 322 322 321 320 322 322 321 321 324 323 322 323 323 322 324 325 326 326 326 325 325 325 324 324 324 324 323 323 323 325 328 329 330 331 331
314 316 317 317 317 318 318 317 316 311 309 310 309 310 315 319 316 315 320 322 319 318 319 320 320 322 320 319 320 320 318 317 319 320 319 319 319 320 323 324 323 324 325 323 323 323 322 322 321 320 322 323 322 322 323 322 322 322 322 323 324 322 322 323 323 323 324 325 324 324 325 325 325 324 324 324 324 324 324 323 322 322 324 326 328 329 329
315 317 318 317 318 317 317 317 315 310 308 309 310 310 314 317 317 317 321 324 321 316 316 319 321 321 320 320 320 320 318 318 319 320 320 320 319 320 322 323 322 322 322 321 322 322 321 321 321 320 322 323 322 323 323 323 323 322 322 323 323 321 322 323 322 321 323 324 324 324 323 324 325 324 323 323 323 324 324 323 322 322 322 324 325 325 327
316 317 317 317 318 317 317 318 315 310 308 309 309 310 313 316 318 317 318 320 323 321 318 318 321 321 320 320 320 319 318 319 320 320 320 320 320 320 322 322 322 321 321 321 322 322 321 321 321 321 322 322 322 323 323 323 322 321 322 323 321 321 324 324 321 322 324 325 325 323 322 323 325 324 323 323 323 323 324 324 323 322 322 323 324 324 325
316 317 317 317 317 317 318 317 314 309 307 309 310 312 315 317 318 318 317 318 322 324 321 319 320 320 320 320 321 319 318 319 320 320 320 320 321 321 322 322 321 321 321 321 321 321 321 321 321 322 324 324 324 323 322 321 321 322 324 324 322 323 324 323 322 323 323 322 323 322 322 323 324 323 323 323 323 323 323 323 323 323 323 323 324 323 323
315 316 317 317 317 317 318 317 313 308 307 310 314 317 319 319 319 318 318 318 320 324 324 319 318 320 320 321 322 320 319 319 320 320 320 321 321 321 322 322 322 321 321 321 321 321 321 321 322 323 324 324 324 323 322 321 322 323 325 325 324 324 324 323 323 323 323 322 322 322 322 323 323 323 323 323 324 324 323 323 324 324 323 323 324 324 323
315 315 316 316 316 317 318 316 313 308 307 312 318 319 317 319 321 319 318 317 318 322 323 319 318 320 320 322 323 322 319 320 320 321 321 321 321 322 322 322 322 322 322 322 322 322 322 322 323 324 324 323 323 323 322 322 322 323 324 324 324 324 323 323 323 323 323 323 322 322 322 322 321 321 322 323 323 323 323 324 324 324 323 323 323 323 323
315 315 316 315 315 316 317 315 311 308 308 313 319 320 316 318 320 319 317 318 320 322 322 319 318 319 319 321 323 323 321 321 321 321 321 322 322 322 322 322 322 323 323 323 323 322 323 323 323 324 324 323 322 323 323 322 322 324 323 322 323 323 323 323 323 322 322 322 321 321 322 321 320 320 322 323 323 322 322 323 323 323 323 323 322 323 323
315 315 315 314 314 316 316 312 309 309 309 310 314 315 314 316 318 317 316 318 322 323 321 319 318 319 319 321 322 323 322 321 320 320 322 323 323 322 322 322 322 322 322 322 323 323 323 323 323 324 325 324 323 324 324 324 323 324 323 322 322 323 323 324 323 322 322 322 321 321 322 321 321 321 322 323 323 322 322 322 322 322 322 322 322 323 323
315 314 314 313 314 315 313 310 309 310 311 311 314 315 314 316 318 316 315 319 322 321 319 318 319 319 319 320 322 323 323 322 320 320 323 324 324 322 321 321 322 322 322 322 322 323 323 323 324 325 325 324 324 325 325 325 324 323 323 322 323 323 323 323 323 322 322 322 321 322 323 322 322 321 322 322 322 322 322 321 321 320 320 320 320 321 322
314 314 314 314 313 312 310 309 311 313 315 315 317 316 314 315 317 316 316 319 321 319 317 316 317 319 319 319 321 323 323 322 322 321 322 323 323 322 321 321 321 322 323 322 322 323 323 323 323 324 325 326 326 326 325 324 324 324 323 323 323 322 323 323 323 323 322 322 321 322 322 322 321 321 321 321 321 321 321 321 320 320 319 319 319 320 320
314 314 313 313 311 311 311 312 314 317 319 318 317 315 315 316 317 316 316 318 319 319 319 316 316 317 318 319 321 324 324 323 323 323 322 323 323 322 321 321 322 323 324 323 322 323 324 324 323 324 326 327 326 326 325 324 324 324 323 323 323 323 322 322 322 323 323 323 322 322 322 321 321 321 321 320 320 320 320 320 319 319 319 318 319 319 319
314 313 312 311 311 313 316 316 316 318 319 317 316 316 316 317 318 318 319 319 319 320 319 317 316 316 317 319 322 323 323 322 323 323 322 322 322 322 321 321 323 324 324 323 324 324 324 324 324 325 326 326 326 326 326 324 324 324 323 324 323 323 322 323 322 323 323 323 323 323 322 321 320 321 320 320 320 320 319 319 319 319 318 318 318 318 318
313 311 311 312 314 317 318 318 318 318 317 316 317 318 318 319 319 319 319 319 319 318 317 316 317 317 315 316 320 322 322 322 323 322 322 322 323 323 322 322 324 324 324 325 325 324 323 324 325 325 326 326 326 326 326 325 324 323 323 324 324 323 323 323 323 322 323 323 322 322 322 321 321 320 320 319 319 319 319 319 319 319 318 318 318 318 318
311 311 312 315 317 318 319 318 317 317 316 317 319 319 319 318 318 319 318 318 319 319 316 315 316 316 314 314 318 321 322 322 322 322 322 323 323 323 324 324 324 324 324 325 325 323 323 325 325 325 325 325 325 325 326 325 325 325 324 325 325 325 324 324 323 322 322 322 322 322 322 321 321 320 319 319 319 319 319 319 319 318 318 318 318 318 318
311 312 315 317 318 318 317 316 316 317 319 319 319 319 319 319 318 319 319 319 318 319 317 315 315 316 316 317 319 321 322 323 322 321 323 324 323 323 324 325 324 324 325 325 324 322 323 325 326 325 324 324 325 327 327 326 326 326 326 326 327 326 325 325 324 323 323 323 322 322 322 321 321 321 320 320 319 319 319 319 319 318 318 318 317 317 317
312 315 317 318 318 317 316 316 317 319 320 320 318 318 319 319 319 318 319 320 319 319 319 318 317 316 316 318 319 320 323 325 323 321 323 325 322 321 323 324 324 324 325 325 323 322 323 325 325 324 323 324 327 328 328 327 327 326 326 326 326 325 325 325 324 323 323 323 323 322 322 321 321 320 320 320 319 319 319 318 318 317 317 316 316 316 315
314 315 316 316 316 316 316 318 319 319 319 319 319 318 318 319 319 319 319 320 320 320 320 320 319 317 316 317 319 321 323 325 323 321 323 324 322 321 322 323 323 323 325 324 322 322 323 324 323 322 323 326 327 327 327 327 326 325 324 325 326 325 324 325 324 323 322 322 322 321 320 319 319 318 318 317 317 317 317 316 316 316 315 315 314 314 314
313 314 315 316 316 317 318 318 318 318 319 318 317 317 318 318 319 319 319 319 320 322 322 322 321 319 317 317 319 322 323 324 323 322 324 323 322 322 323 323 323 323 323 321 321 322 323 322 321 321 323 326 327 326 327 326 325 324 324 325 324 323 323 323 322 321 320 319 318 318 317 317 317 316 315 315 315 315 315 314 314 314 314 313 313 313 313
314 315 316 318 318 317 318 318 317 318 319 318 316 316 318 318 317 318 319 319 320 322 323 322 321 318 317 317 319 321 322 322 323 324 325 324 323 324 325 324 323 322 321 320 322 322 322 321 321 322 325 327 326 326 325 324 323 322 322 322 322 321 320 319 319 318 317 316 316 315 315 315 315 314 314 314 314 313 313 313 313 312 312 312 312 312 311
316 316 317 319 317 316 316 317 316 317 319 319 317 317 317 316 316 317 319 320 322 323 323 324 322 319 318 319 320 320 321 323 323 324 325 324 324 324 325 324 322 322 321 321 321 321 321 321 320 321 325 327 326 325 324 323 322 321 320 319 319 319 319 319 318 318 317 316 315 314 314 314 314 313 313 313 312 312 312 312 312 311 311 310 310 310 309
318 316 316 318 319 317 315 315 316 318 319 319 318 317 316 316 317 318 319 321 323 323 323 324 324 321 320 321 322 322 323 323 323 323 324 325 325 325 323 322 322 322 322 322 321 320 321 320 319 321 325 327 325 324 323 321 321 320 319 318 318 318 318 318 317 316 315 315 314 313 313 313 312 312 312 312 312 311 311 310 310 309 309 309 309 309 309
317 315 313 316 318 317 315 316 317 318 318 318 318 317 316 316 317 318 318 319 321 323 325 325 325 323 322 323 324 324 324 324 324 324 324 324 324 323 322 322 323 323 322 322 322 321 320 319 320 324 326 326 324 323 322 320 319 319 319 317 317 317 317 316 315 315 314 313 312 312 312 312 312 312 311 311 311 310 310 309 309 309 309 309 309 309 309
315 313 313 315 317 317 317 317 317 315 315 316 316 316 316 316 317 319 318 318 320 324 325 325 325 325 324 324 324 325 324 324 325 324 323 323 323 322 321 322 323 322 321 321 322 320 319 319 322 325 325 324 323 321 321 319 319 318 317 316 316 316 316 315 314 313 312 312 312 312 311 311 311 310 310 309 309 308 308 308 308 308 308 308 308 308 308
314 313 314 316 317 317 317 317 316 315 316 316 315 315 316 316 318 320 320 320 321 324 325 325 325 326 325 324 324 324 325 325 324 323 322 323 323 323 322 323 323 321 320 320 320 319 319 322 324 324 324 322 321 320 319 318 318 317 317 316 315 314 314 313 312 312 311 311 311 311 311 310 310 309 308 308 308 307 308 308 308 307 307 307 307 307 307
314 314 315 317 317 317 317 317 317 317 316 315 315 316 316 316 319 322 321 321 323 325 325 324 324 325 324 324 324 324 325 324 323 323 323 324 324 323 323 323 322 321 320 319 318 319 320 321 322 323 322 321 320 319 318 317 317 317 316 315 313 312 312 312 311 311 311 311 310 310 309 309 308 308 308 307 307 307 308 308 307 307 306 306 306 306 306
313 314 316 318 317 317 317 317 318 317 315 315 316 316 315 317 321 323 322 322 324 325 324 324 324 324 323 323 323 324 324 324 324 323 324 324 323 323 324 324 322 319 319 319 319 320 320 320 321 321 321 319 319 318 317 316 316 315 314 313 312 311 311 311 311 311 310 310 309 309 308 308 307 307 307 307 307 307 308 307 306 306 306 305 305 306 305
314 315 316 317 316 315 316 316 316 316 315 315 315 316 316 318 321 323 323 323 324 325 325 324 324 323 322 322 324 323 323 324 324 323 324 324 323 323 323 323 322 320 320 319 319 319 320 320 320 321 320 318 317 317 317 316 315 313 312 311 311 311 311 311 311 310 310 309 308 308 307 308 308 308 307 307 308 308 307 307 306 305 305 305 305 305 305
Wind_Speed
18 19 19 19 20 21 24 26 28 30 28 21 15 9 4 4 1 4 2 1 3 7 2 3 2 1 3 2 2 2 1 2 3 2 2 2 1 1 1 2 3 3 2 2 1 1 1 1 1 2 3 4 3 4 6 7 7 5 1 1 2 2 4 5 6 5 1 4 6 6 5 8 12 12 11 10 10 12 10 9 7 7 9 8 6 8 3
18 18 19 19 19 20 22 25 27 28 26 22 15 6 1 0 1 3 2 2 4 6 2 3 2 4 3 4 4 3 2 4 4 3 4 3 2 2 2 2 3 4 2 1 1 1 1 1 2 1 2 3 3 3 5 5 4 1 2 2 2 2 2 4 6 7 7 6 7 9 9 9 9 9 9 7 8 11 10 8 5 5 10 10 9 8 3
18 17 18 18 18 19 21 23 26 26 24 20 12 4 1 1 2 2 2 2 4 3 2 1 1 4 5 5 4 3 2 3 3 4 5 4 3 3 2 2 2 2 1 0 2 0 2 1 1 1 2 3 3 4 5 4 3 3 4 1 3 3 2 2 5 7 8 7 6 6 8 10 8 5 5 6 9 10 8 6 5 6 8 10 10 6 4
18 17 18 18 18 18 19 21 24 25 22 18 10 4 3 2 3 3 4 4 3 0 1 3 2 3 5 5 3 3 3 4 1 2 2 3 3 3 2 1 2 1 1 1 3 1 1 0 2 2 1 2 2 5 6 4 4 4 2 2 3 3 1 2 1 1 1 2 2 1 3 8 8 6 6 8 9 9 8 8 8 7 7 8 10 8 3
18 17 18 17 17 18 18 19 23 23 20 16 8 3 2 3 3 2 2 3 3 3 3 3 2 2 4 3 3 4 3 3 3 0 1 2 2 1 2 1 2 1 1 1 2 2 1 1 2 1 1 0 1 2 5 5 6 5 1 1 3 3 0 2 4 6 6 5 5 3 3 6 6 7 7 7 8 9 11 9 6 5 7 7 8 10 9
18 16 17 17 16 17 17 18 21 22 18 14 7 2 1 2 1 1 2 2 3 3 2 2 3 4 4 2 3 4 3 2 1 1 1 1 1 2 1 1 2 2 1 2 1 2 2 2 2 0 1 1 2 3 1 4 5 3 1 1 3 3 1 1 3 7 8 6 6 6 7 7 6 6 5 5 7 8 11 8 2 2 5 3 1 6 6
17 16 16 17 16 16 17 17 19 20 17 11 6 3 0 1 1 1 1 3 1 1 1 2 4 5 4 3 4 5 4 2 1 1 1 2 1 3 2 2 2 2 1 3 2 2 1 2 3 1 1 1 2 1 2 2 4 2 1 1 1 1 2 2 1 7 9 8 6 6 8 10 9 9 8 5 5 4 3 1 5 3 1 2 3 5 6
16 15 15 16 16 16 16 16 18 19 15 7 4 3 2 2 2 1 2 3 1 1 1 4 5 5 4 3 4 4 4 3 3 1 2 1 1 1 1 3 2 2 1 2 1 2 2 2 3 0 1 0 2 2 2 3 3 2 2 0 0 3 2 1 2 3 8 7 6 6 8 11 13 12 11 8 6 6 6 6 7 4 3 4 4 8 9
16 15 14 15 15 16 16 15 16 18 14 6 2 4 4 3 2 2 3 3 2 2 3 4 4 5 5 4 4 5 4 3 4 3 2 2 1 1 1 2 1 1 2 1 3 4 3 2 3 1 2 2 2 3 4 5 4 2 2 1 2 4 3 1 4 4 6 6 3 5 7 9 13 14 13 11 8 7 8 9 8 7 5 2 4 5 5
16 14 14 14 14 15 15 15 15 16 13 7 3 4 5 2 1 1 4 2 3 3 4 4 5 3 3 3 4 5 5 5 4 2 2 1 1 2 0 1 2 2 3 4 4 4 2 2 2 1 2 4 4 3 4 5 5 3 2 1 2 3 3 2 3 3 5 4 3 1 6 7 7 10 10 9 8 8 9 9 10 10 8 3 1 2 4
15 14 14 13 13 14 15 14 14 14 13 10 5 5 7 5 2 1 3 4 4 3 4 6 5 2 3 5 6 5 6 7 3 1 2 4 2 1 1 2 3 1 3 4 4 3 3 2 3 3 2 3 3 2 3 5 6 5 3 3 1 3 4 2 1 3 3 1 6 5 5 6 4 5 6 7 7 9 10 11 12 10 8 4 3 3 5
12 14 13 13 13 13 14 14 13 12 10 9 6 5 7 6 4 2 3 5 4 4 5 5 3 2 5 7 7 6 7 6 3 1 2 5 3 2 2 2 3 1 4 3 2 3 4 5 5 4 3 2 2 1 3 5 5 4 4 4 3 4 5 3 1 3 1 3 5 4 4 5 5 4 6 6 4 6 10 13 14 11 9 8 6 5 6
10 12 12 12 12 12 13 13 12 11 8 6 5 4 7 7 4 2 3 5 4 4 5 3 3 4 7 8 7 6 6 5 4 4 4 4 3 3 3 1 0 2 2 2 4 4 4 6 4 3 3 2 2 1 3 5 5 6 5 4 4 3 5 4 1 1 1 1 2 2 3 4 4 4 7 6 2 2 5 10 14 12 10 9 8 6 5
7 10 11 11 11 11 12 12 12 10 8 5 3 3 6 6 4 3 2 4 4 2 3 3 5 7 8 8 8 7 7 7 6 5 3 2 2 3 3 2 2 2 1 3 5 5 4 4 4 4 4 4 5 3 1 2 3 6 6 5 4 4 3 4 3 1 2 3 1 1 1 4 4 3 6 6 4 5 4 5 10 11 9 8 7 6 5
6 8 10 11 10 10 11 12 11 10 8 5 2 2 4 6 5 4 2 3 3 2 3 3 5 9 10 10 9 8 7 7 5 4 4 2 2 3 3 2 2 1 3 3 4 4 3 3 4 4 4 3 2 1 1 1 1 3 4 4 2 2 3 3 4 2 2 4 4 2 4 4 3 4 5 5 4 6 6 1 6 9 8 6 5 4 5
6 7 8 10 10 10 10 11 11 10 8 5 3 3 3 5 5 4 4 3 4 3 2 1 1 6 8 7 6 5 5 5 4 4 5 4 3 4 4 3 1 2 4 3 3 3 4 3 3 3 1 1 2 1 1 2 1 2 2 2 1 2 2 3 4 4 4 5 6 5 4 1 4 5 6 6 3 3 5 2 4 8 8 5 4 3 3
6 7 8 9 10 10 10 10 11 10 8 5 3 3 3 5 6 4 4 3 3 3 2 2 2 5 6 6 5 4 2 3 3 2 3 4 4 5 5 4 3 3 4 3 3 3 4 3 2 2 1 3 1 2 2 3 1 1 2 1 0 2 3 4 5 5 5 6 5 3 2 3 6 6 7 7 3 1 5 4 2 6 7 4 3 2 3
6 6 7 8 9 10 10 9 10 10 8 6 4 4 5 4 5 5 4 3 4 2 2 2 4 3 2 2 3 3 2 3 3 2 1 4 4 3 4 3 3 3 4 4 3 4 3 2 1 1 3 4 1 2 0 1 1 2 3 2 1 1 1 2 4 4 5 6 5 3 3 4 5 7 7 5 2 3 3 0 2 5 6 4 3 2 3
6 6 6 7 8 9 10 9 8 10 9 6 5 4 5 5 4 5 4 3 3 1 3 2 3 3 2 1 2 4 1 1 2 3 3 4 3 2 2 1 1 2 3 3 3 2 2 2 1 1 2 4 2 1 1 1 1 2 2 2 0 1 1 1 2 1 2 4 4 3 4 4 7 8 5 3 2 2 1 2 1 3 5 4 3 2 2
5 6 6 6 7 8 9 8 7 9 9 7 5 4 5 6 5 5 4 3 4 3 2 2 2 2 1 1 1 3 3 3 3 4 2 2 4 4 4 3 2 3 3 4 3 2 2 2 3 2 1 3 2 1 2 2 1 1 2 2 2 2 1 2 1 1 1 4 3 2 3 4 9 8 3 2 3 2 3 2 2 3 3 2 2 2 2
5 6 6 6 7 7 8 7 6 7 9 7 5 4 4 5 5 6 5 3 4 3 2 3 1 3 2 3 3 2 1 1 2 2 1 3 3 3 2 2 2 2 2 2 2 1 1 0 2 1 1 2 1 1 1 3 4 2 2 2 1 3 2 1 3 2 2 2 3 2 3 5 9 7 4 5 5 4 3 3 4 5 4 1 0 1 1
6 6 6 7 7 7 8 7 6 7 8 7 5 3 3 2 4 7 5 3 5 5 3 2 3 4 4 3 3 3 3 3 3 2 1 2 3 2 2 2 2 1 1 1 1 1 1 1 1 2 2 2 2 1 0 1 3 5 2 2 1 3 3 3 3 3 3 3 5 5 4 4 5 5 6 5 4 3 4 4 4 5 5 4 3 1 1
6 7 7 7 7 7 8 7 6 6 7 6 4 2 3 3 5 6 4 3 5 6 5 4 4 4 3 2 1 0 1 2 2 2 2 1 3 2 2 1 1 1 1 2 3 1 1 2 0 0 1 2 1 2 2 2 0 3 2 1 3 3 1 3 1 3 4 4 4 4 4 5 5 4 4 4 4 4 4 5 5 6 5 4 4 3 2
7 7 8 7 7 6 7 7 6 5 6 6 3 2 2 3 4 4 3 4 4 3 4 5 4 3 4 5 3 2 3 3 3 2 1 2 2 3 2 1 1 1 2 0 2 2 0 1 1 1 1 1 1 2 2 1 1 1 1 2 5 4 2 2 0 2 3 3 5 5 5 5 4 4 4 3 4 4 5 5 5 5 5 5 5 4 2
7 8 9 8 7 7 7 7 5 4 5 6 4 1 1 2 3 3 2 3 2 2 3 6 5 3 3 4 4 3 4 3 3 2 1 2 4 3 2 5 2 1 3 2 1 2 1 1 1 2 1 1 1 2 0 1 1 0 2 1 4 4 4 3 1 2 2 4 6 6 4 4 3 2 3 4 4 5 5 4 4 4 5 5 4 3 2
8 9 9 8 7 7 7 6 5 5 5 5 3 2 2 1 2 2 2 3 3 3 4 4 5 4 3 5 5 3 3 4 3 2 1 1 3 2 4 7 4 3 4 3 2 2 1 1 2 3 1 1 1 1 1 1 1 1 2 1 4 3 3 1 1 2 2 4 6 5 4 5 5 4 4 5 4 4 5 4 4 5 6 5 4 3 3
9 8 8 8 7 7 6 6 5 5 5 5 3 3 3 2 1 1 1 3 2 2 4 5 4 4 3 4 4 3 3 4 4 3 2 2 3 4 7 8 5 4 5 3 1 1 2 2 2 1 1 2 1 1 1 1 0 3 3 2 4 3 3 2 2 4 2 3 6 5 2 2 5 6 6 6 4 4 4 5 5 6 6 5 4 4 3
7 7 7 8 8 7 6 6 5 4 5 4 3 3 4 3 2 1 1 1 2 2 3 3 3 3 3 4 4 4 5 5 4 3 4 4 5 6 8 7 5 5 4 3 2 3 3 2 1 1 2 1 2 2 1 1 2 4 3 4 5 3 2 2 2 2 2 5 5 4 2 1 4 6 5 5 4 3 4 5 5 5 6 5 5 5 4
6 7 8 8 7 7 7 7 6 4 4 3 2 3 3 4 4 3 2 1 1 3 4 2 2 2 3 4 5 6 6 6 6 5 6 7 7 7 7 5 3 3 2 2 2 2 2 1 1 2 2 1 2 2 3 3 4 3 2 5 5 1 0 1 3 3 2 3 4 3 1 1 5 5 5 4 3 2 3 4 4 4 5 5 5 5 5
6 8 10 9 7 7 8 7 6 4 3 3 4 4 4 3 4 5 4 2 1 3 4 3 3 3 3 3 4 7 9 8 7 7 8 7 6 6 5 4 2 1 1 1 1 1 2 2 1 2 2 1 2 2 2 3 4 2 4 5 4 3 2 2 1 1 1 2 4 3 2 3 5 4 4 4 3 2 3 4 4 4 4 4 5 5 5
8 10 10 8 7 7 8 8 6 4 3 5 5 4 2 2 4 6 6 3 2 2 4 3 2 2 3 2 2 4 9 10 8 8 8 7 6 5 4 3 2 1 1 1 1 1 1 2 2 3 3 1 3 3 2 3 4 2 5 5 4 4 4 3 2 2 2 3 5 4 3 4 4 3 3 4 3 2 2 2 4 4 4 4 4 4 4
8 8 8 8 8 8 8 8 6 4 5 8 6 2 2 2 4 7 6 3 2 2 4 3 3 3 4 4 3 3 7 10 8 7 5 4 4 4 3 2 2 1 1 0 2 2 1 1 2 3 3 2 2 3 3 4 4 2 6 5 4 4 4 4 4 4 3 5 6 5 4 5 4 2 2 4 4 2 2 2 2 2 1 1 1 2 3
6 6 7 8 8 7 7 7 6 3 5 9 9 4 3 1 4 7 5 3 2 2 3 3 3 3 2 4 5 5 6 7 7 6 4 2 3 4 3 2 2 2 1 1 2 1 1 1 2 2 3 3 3 3 4 5 3 2 4 5 5 5 5 4 5 5 5 6 5 3 2 3 4 3 4 5 4 3 2 1 1 1 1 2 1 0 1
6 6 7 8 8 7 6 6 3 2 3 5 5 4 2 2 5 7 5 2 2 2 2 3 3 3 3 4 5 5 5 6 6 6 4 2 2 4 3 3 3 3 2 2 2 1 2 2 2 2 2 3 3 4 4 4 2 1 3 4 5 5 5 5 5 6 6 6 4 1 2 4 6 5 5 5 4 3 2 2 2 3 2 2 2 0 1
6 6 7 8 7 5 4 3 3 4 3 3 3 3 4 5 6 6 4 2 1 3 3 2 3 3 4 5 5 5 5 5 5 5 4 3 2 3 3 3 3 2 1 1 2 3 3 2 1 2 3 3 4 5 4 2 2 3 4 5 6 6 6 6 6 6 6 6 5 4 4 5 5 5 5 5 5 4 3 3 3 3 3 2 1 1 2
6 6 7 6 4 3 2 3 5 4 2 3 5 6 7 7 6 4 3 1 2 3 1 2 3 4 5 5 4 5 5 6 4 3 3 3 3 3 3 3 3 2 1 2 4 4 2 1 1 3 3 3 5 5 2 1 3 4 5 5 6 7 7 6 6 7 7 7 6 6 5 6 5 5 4 4 4 4 4 3 3 3 3 2 1 1 1
5 5 3 1 2 3 3 3 4 3 4 7 10 9 7 6 4 2 2 1 1 2 2 2 4 3 3 2 2 4 5 6 5 4 4 4 3 3 3 4 3 2 2 4 5 3 1 2 3 5 5 5 5 3 1 2 4 4 4 4 6 6 6 5 5 7 8 8 8 7 6 6 6 5 4 5 4 4 4 4 4 3 2 2 2 1 1
3 1 1 2 3 3 2 3 4 6 10 12 10 7 4 2 2 2 2 2 2 1 2 3 3 2 2 2 2 4 4 4 4 4 4 4 3 3 3 3 2 1 3 4 2 2 2 3 4 6 6 5 5 4 4 4 4 3 3 4 5 5 5 5 6 8 8 7 7 7 7 7 6 6 5 5 5 5 4 4 3 3 3 3 3 3 3
2 2 3 3 2 1 1 5 10 13 13 9 5 2 2 2 3 2 2 2 2 2 3 4 4 3 4 4 3 2 1 3 5 5 4 3 3 3 3 3 2 1 4 3 3 3 3 4 4 5 5 4 3 3 4 4 5 4 4 4 4 5 5 6 7 8 7 5 5 6 7 6 6 6 5 5 4 5 5 4 4 4 4 4 4 4 5
3 3 2 2 0 2 4 10 13 11 6 4 3 2 2 2 2 2 2 2 3 3 3 3 3 3 3 4 4 3 1 2 4 4 4 3 2 1 2 3 2 2 5 4 3 3 4 4 3 4 4 2 1 1 1 2 3 4 4 4 5 5 5 6 6 6 5 2 2 4 5 3 3 4 4 4 4 4 4 4 5 5 5 5 6 6 7
4 4 2 2 3 4 7 9 8 4 2 3 2 1 1 2 2 1 2 3 4 3 2 2 3 4 4 4 3 4 2 1 2 2 2 3 2 2 3 2 1 3 5 2 3 2 4 4 4 4 2 1 3 3 3 3 3 3 4 4 5 5 6 7 7 6 5 5 5 5 5 4 3 2 2 2 2 3 3 4 4 5 6 7 8 8 9
4 4 5 6 7 7 6 5 3 2 2 2 2 1 2 2 2 2 3 3 2 2 3 3 3 3 5 4 2 2 2 1 1 2 3 3 2 2 3 2 2 4 3 1 2 2 4 4 4 4 0 3 4 3 3 4 4 5 5 6 6 7 7 8 8 7 6 6 6 6 5 5 4 3 2 1 2 3 4 5 6 7 8 9 9 10 11
6 8 8 7 5 3 2 2 1 1 1 1 1 2 2 3 3 3 3 2 1 2 3 3 2 3 4 4 2 2 2 1 1 2 2 2 2 2 2 3 3 3 1 1 2 4 4 5 5 2 3 5 4 3 5 5 6 7 7 8 9 9 10 10 10 9 8 8 7 6 5 4 3 2 1 1 3 4 5 6 8 9 10 10 11 11 12
7 7 5 3 2 1 2 1 1 1 1 2 2 3 4 4 5 4 3 3 3 4 4 5 4 5 5 4 2 2 2 1 2 2 2 2 2 3 3 3 2 1 0 2 4 5 4 5 4 1 4 4 4 5 6 6 7 7 8 9 10 10 10 10 9 9 8 7 6 5 4 2 1 0 2 3 4 6 7 8 8 9 10 11 12 12 13
5 3 2 1 1 1 1 1 1 2 2 2 3 4 4 3 3 3 2 2 2 4 5 5 5 5 6 4 3 3 3 2 2 2 2 2 3 4 3 1 1 1 2 4 4 4 4 4 2 3 5 5 5 6 7 7 7 8 8 9 9 9 9 9 8 7 6 5 4 3 2 1 2 3 4 4 5 6 7 8 9 10 11 12 13 14 15
3 2 1 1 1 1 1 2 2 2 2 2 3 4 3 2 1 2 3 2 2 4 6 5 5 6 6 4 2 2 2 3 2 2 2 2 3 2 1 1 2 3 4 5 5 5 5 4 1 3 5 6 7 7 7 7 7 8 8 8 8 8 8 8 7 6 5 4 3 2 1 2 2 3 4 4 4 5 6 8 9 11 12 13 14 14 15
2 2 0 1 2 1 3 3 1 1 1 2 3 3 2 0 0 1 2 1 1 4 5 4 4 5 5 3 2 2 2 3 3 3 2 2 2 1 1 2 4 4 5 5 6 5 4 2 2 4 6 7 8 8 8 8 8 8 8 8 7 7 7 7 6 5 4 3 2 2 1 1 2 2 3 4 5 6 7 8 9 10 10 12 13 13 14
2 1 1 1 2 2 3 2 1 1 2 2 2 1 0 1 2 2 2 1 1 4 6 6 5 5 4 3 3 3 3 3 3 2 1 1 1 2 2 4 5 4 4 5 5 4 2 2 4 5 6 7 8 8 8 8 8 9 8 8 7 7 7 6 5 5 4 4 3 2 2 2 2 3 4 5 7 7 8 8 8 8 9 11 12 13 14
1 1 1 1 1 1 1 1 0 2 2 2 2 2 2 2 3 2 3 2 3 4 5 4 4 4 3 2 2 3 3 3 2 3 2 3 3 3 3 4 5 5 4 4 3 2 2 4 5 6 7 7 8 8 8 8 8 8 8 8 7 7 6 6 7 6 5 4 3 2 2 2 3 4 5 6 7 7 7 6 6 7 8 9 10 11 12
1 1 1 2 1 0 1 1 1 2 3 3 3 3 3 3 2 2 3 3 4 4 4 3 2 2 2 2 2 3 3 2 2 3 4 4 4 3 4 5 5 4 3 2 1 2 3 4 5 6 7 8 8 8 8 8 8 8 8 8 8 7 7 8 7 6 5 4 3 2 3 4 4 5 5 5 5 5 4 4 5 6 7 8 9 9 10
1 1 2 2 2 1 2 2 2 2 3 4 3 2 2 1 1 2 3 4 4 5 5 5 3 3 3 3 3 2 2 2 3 4 4 4 3 4 5 5 4 2 2 1 2 3 3 4 5 6 7 8 8 8 9 9 9 9 9 9 9 8 8 8 7 6 5 3 2 2 3 3 3 4 3 3 2 2 1 3 5 6 7 7 8 9 10
2 2 1 1 1 1 2 2 2 2 2 2 1 1 1 0 1 2 4 5 6 6 5 4 4 3 3 3 3 2 2 3 3 4 4 4 3 4 5 3 1 1 1 1 2 3 3 4 5 6 8 8 9 9 10 10 9 9 9 9 9 9 8 7 6 5 4 2 1 2 2 2 1 1 1 1 1 1 2 3 5 6 6 7 8 9 9
Wind_Direction
351 357 354 354 355 353 351 351 353 355 358 2 352 327 263 230 127 68 36 190 243 273 222 145 216 131 89 100 105 53 332 334 357 359 343 333 327 353 34 17 19 36 17 342 293 350 33 81 128 139 126 93 52 334 330 309 278 272 285 52 24 306 254 243 241 231 192 98 153 206 249 222 206 210 217 217 216 215 224 236 225 216 224 220 233 241 182
346 355 355 355 355 354 352 351 354 356 358 360 350 321 257 319 69 89 90 166 252 270 228 168 173 125 139 169 136 105 38 21 13 18 27 12 325 329 44 39 24 38 21 338 4 341 304 145 103 118 138 85 45 343 337 321 287 277 32 359 329 309 268 235 227 211 190 171 177 191 202 213 217 212 210 229 239 224 228 243 235 228 225 214 226 241 182
342 353 355 354 355 356 354 351 354 355 355 358 352 319 284 265 188 132 120 176 240 278 331 298 189 143 173 180 155 163 136 61 10 12 38 31 349 338 58 43 6 35 47 97 101 324 285 197 138 170 149 103 52 6 353 346 356 60 81 25 297 303 339 278 235 216 199 186 180 186 190 199 211 207 197 223 239 231 232 235 222 227 225 212 225 241 127
339 350 354 353 355 356 355 353 353 354 354 354 346 306 286 249 204 173 155 177 220 256 24 285 249 177 190 183 175 217 171 114 87 334 34 52 16 3 52 358 282 236 223 177 115 115 299 129 171 181 153 121 68 6 348 11 34 26 66 65 303 287 24 17 339 197 181 139 79 24 186 185 188 187 192 208 222 230 235 232 227 225 223 220 228 234 179
337 347 353 353 355 356 356 355 353 353 353 352 338 279 270 269 229 199 167 179 205 195 180 227 236 194 205 190 172 217 207 137 143 262 19 48 15 353 46 336 275 271 245 232 107 107 151 135 155 169 349 300 131 345 330 14 28 350 338 73 309 289 32 33 61 78 77 80 73 72 143 166 172 176 184 192 200 218 227 233 252 248 231 229 216 220 225
336 344 351 352 355 356 355 356 356 354 353 352 336 269 239 276 258 20 347 238 208 195 179 204 211 192 196 191 183 207 215 192 168 117 121 123 295 267 199 61 355 15 334 264 197 148 170 143 132 40 355 278 231 205 227 32 27 338 274 76 313 293 271 326 90 97 91 91 91 95 116 121 119 127 141 170 181 206 224 230 336 333 244 264 200 204 221
338 343 350 352 355 357 355 357 359 356 355 354 334 300 256 270 238 100 305 273 247 86 87 199 205 190 183 186 196 212 213 182 118 34 220 187 345 288 249 84 32 17 341 279 236 169 209 146 120 36 358 317 302 213 146 55 31 343 290 35 22 231 220 275 129 115 100 97 107 110 109 105 93 82 80 106 131 137 195 155 32 19 281 9 64 116 91
340 342 348 352 356 358 356 358 2 0 358 356 341 353 16 333 350 61 227 236 227 94 161 206 201 179 187 196 183 206 224 169 134 107 283 248 124 237 220 95 49 20 33 268 203 86 4 40 105 340 288 349 346 17 47 358 3 4 326 357 183 227 213 302 282 152 115 107 123 127 115 102 86 67 57 67 85 80 65 45 24 13 37 57 111 113 88
341 342 348 352 356 357 357 359 4 6 5 356 349 26 19 347 13 345 269 220 174 191 188 206 214 191 197 200 171 188 203 158 138 125 27 353 56 149 156 124 103 36 97 103 83 72 24 25 73 9 342 40 28 34 28 346 330 349 359 321 263 251 210 196 261 213 132 117 122 137 145 119 85 56 39 40 53 69 65 46 33 22 6 359 158 128 97
342 345 348 351 356 357 357 0 5 9 15 10 348 20 13 330 187 263 277 233 178 205 189 196 222 205 176 175 174 186 172 147 155 149 121 131 46 35 349 221 246 210 141 90 49 33 3 26 74 73 68 72 64 58 48 21 0 355 342 302 266 266 243 207 247 230 153 127 13 322 196 167 87 42 20 24 44 76 79 54 41 27 355 326 182 67 86
343 345 346 348 354 357 356 1 7 11 23 29 15 15 15 343 285 256 271 239 199 201 203 204 213 190 148 169 180 177 159 155 177 265 168 154 134 72 202 243 267 222 103 70 35 21 37 83 110 119 120 101 87 74 59 50 37 15 342 307 265 246 244 218 254 253 191 90 339 301 212 167 90 32 8 15 38 65 71 54 41 31 18 32 55 58 111
343 343 343 345 350 355 356 359 7 11 19 31 29 15 13 348 298 274 271 248 204 188 213 215 200 185 180 180 180 172 163 160 162 220 162 142 135 151 175 222 247 118 83 83 126 128 123 133 141 141 137 122 104 87 50 47 43 31 10 338 304 234 223 202 169 257 265 7 318 259 164 109 94 59 23 13 32 67 74 63 47 33 33 51 64 82 116
340 342 342 343 343 351 356 355 3 10 7 18 29 6 5 356 306 281 298 267 225 199 218 200 145 185 191 176 171 162 146 139 135 140 140 133 146 166 171 200 204 77 87 159 170 175 166 148 155 174 168 188 226 215 45 37 30 25 22 359 323 267 220 196 169 228 223 354 292 231 122 109 130 80 24 8 9 46 70 67 48 31 33 51 59 72 94
333 341 342 342 339 345 352 351 357 5 0 359 4 348 3 1 319 307 323 274 247 205 228 206 169 188 191 169 160 151 136 143 152 139 129 145 155 146 145 132 62 63 176 191 179 196 204 172 182 201 189 208 226 206 110 41 29 23 19 9 338 302 247 204 189 202 201 176 122 33 179 174 149 83 18 6 6 342 338 59 53 31 30 47 57 78 100
324 335 337 339 339 339 345 348 350 357 356 347 315 305 355 2 333 310 304 285 272 219 217 235 193 183 180 166 158 158 152 158 161 138 132 164 149 112 119 112 70 164 208 208 198 202 213 209 210 211 200 218 242 176 127 271 58 47 21 7 345 302 284 237 198 187 208 177 141 157 214 194 110 69 29 5 351 331 317 34 65 31 20 34 45 73 109
314 319 326 333 336 333 335 341 346 349 350 340 303 265 311 359 356 309 281 286 279 238 181 358 267 182 171 160 158 174 178 163 163 161 158 168 157 129 128 122 111 210 206 200 199 205 215 219 228 236 216 40 359 342 313 299 251 106 46 8 358 193 215 237 213 187 196 198 177 183 207 165 48 36 16 7 6 327 288 230 82 26 7 17 33 58 115
310 311 317 323 327 329 329 334 339 343 346 342 318 260 275 340 2 327 281 267 268 265 88 67 239 188 165 164 165 176 173 141 166 209 170 153 151 142 146 152 160 203 219 208 189 196 211 212 223 232 137 75 1 281 296 303 276 76 29 7 130 175 184 208 213 189 190 209 195 164 140 70 34 3 352 4 27 253 250 220 84 14 352 360 24 48 90
310 312 315 317 323 325 323 326 333 337 341 338 317 280 258 291 348 347 298 270 266 267 93 122 233 210 157 185 159 141 133 143 177 224 153 141 154 149 149 163 167 187 218 229 210 199 201 190 222 242 122 106 271 270 341 316 332 36 352 330 107 148 192 226 225 187 184 209 198 134 98 63 15 346 348 2 342 236 244 196 36 347 338 343 353 35 74
312 314 311 313 317 319 316 318 325 333 339 336 319 296 252 259 329 349 312 278 278 278 97 111 260 274 346 329 135 126 129 182 191 209 187 157 145 120 120 170 237 201 204 224 220 210 210 164 155 278 159 140 176 271 78 25 16 32 323 299 89 127 171 205 230 178 165 201 196 149 117 62 352 328 331 340 288 246 60 54 13 334 336 333 325 352 72
307 308 306 303 307 316 319 316 318 328 336 335 324 308 269 263 301 328 314 300 295 283 122 118 265 270 265 265 187 149 176 200 201 222 227 129 137 173 185 187 199 190 193 213 210 211 236 160 143 236 250 125 137 195 125 127 100 19 324 322 7 347 282 173 144 40 192 186 178 164 129 56 353 327 318 12 6 42 51 38 51 33 3 316 306 336 357
298 296 298 293 296 313 320 314 314 327 333 335 330 311 280 269 294 316 312 286 274 277 101 98 287 273 262 284 314 334 280 189 176 235 275 91 131 225 232 134 144 183 193 214 206 184 267 137 131 188 306 86 136 209 146 144 145 132 310 305 13 355 329 79 83 26 283 193 125 88 81 42 7 358 45 52 38 42 6 351 37 43 22 1 35 51 6
299 296 291 281 284 307 317 309 311 323 329 334 330 301 277 279 311 324 319 258 253 278 317 335 300 281 279 291 306 316 335 9 24 345 282 140 156 257 301 104 124 18 358 267 246 163 173 194 167 174 172 149 158 163 291 270 144 135 181 253 35 32 357 354 35 38 17 40 68 75 81 64 35 37 58 54 43 36 359 352 24 32 18 4 4 56 95
290 301 300 284 280 299 309 299 300 317 327 332 327 291 283 296 315 326 320 255 253 265 265 264 252 227 208 192 199 308 67 64 52 21 327 251 176 202 254 200 132 76 41 291 301 334 158 171 200 262 168 146 160 173 193 268 129 122 145 155 86 76 333 309 359 96 92 72 80 96 98 91 81 72 64 46 38 38 17 10 25 26 17 7 1 19 54
276 294 304 292 277 289 301 291 285 306 326 326 316 274 279 303 328 333 302 254 253 247 222 217 216 195 153 138 134 121 115 113 101 86 9 307 248 215 200 157 157 169 163 234 328 335 109 104 47 270 201 117 265 236 191 181 102 104 157 149 129 140 214 266 238 149 158 127 111 111 104 100 103 111 110 89 59 49 33 28 34 27 18 23 19 13 28
268 281 296 291 275 282 297 293 286 301 321 319 309 278 263 309 344 352 310 264 264 268 232 202 174 108 92 132 146 134 126 123 117 119 129 279 283 286 112 112 95 55 123 141 224 232 201 130 193 232 195 117 262 270 340 73 76 106 245 200 122 142 203 225 169 162 149 104 108 114 115 121 123 113 113 109 88 74 62 48 48 45 42 48 39 19 23
265 277 289 284 271 275 286 288 283 294 311 312 295 248 212 244 326 350 327 288 271 269 260 215 155 119 139 167 153 128 136 146 139 130 123 210 257 270 115 119 109 86 116 145 211 223 211 220 233 239 200 139 248 291 37 61 85 227 262 27 84 129 186 171 124 177 163 126 137 150 155 153 148 119 95 93 84 82 83 70 59 55 55 57 55 45 36
266 281 288 281 275 277 281 280 277 289 305 305 283 239 206 209 309 6 317 290 270 222 235 223 163 132 156 165 139 135 168 166 152 142 124 138 172 161 145 144 142 136 146 157 154 181 216 222 224 243 77 108 198 274 6 36 259 251 245 139 132 189 193 138 181 226 215 124 140 158 200 172 135 117 102 94 80 73 78 69 57 52 46 40 44 57 63
268 285 288 278 273 274 277 277 274 284 298 295 266 225 210 214 241 221 192 265 290 282 266 242 157 137 167 170 153 159 171 171 163 144 120 123 140 148 150 152 155 163 173 173 167 195 219 218 186 130 99 126 198 196 153 158 232 255 243 162 169 220 209 172 245 284 41 75 110 146 261 352 103 112 108 98 81 66 72 67 54 52 47 33 25 33 43
272 285 288 280 270 269 276 274 267 280 297 283 211 199 212 216 223 225 197 184 265 293 294 265 188 170 163 150 153 164 169 170 165 141 123 127 134 135 138 145 158 171 175 192 214 210 199 183 68 90 94 309 253 187 175 212 224 226 137 143 166 200 176 228 294 335 53 95 111 136 224 94 111 115 107 95 77 48 65 70 58 51 47 38 33 28 22
273 281 287 281 267 269 277 271 265 280 279 214 190 200 210 199 202 212 208 179 215 278 275 242 204 169 122 115 147 163 166 169 165 148 137 134 127 120 122 126 125 134 164 195 224 210 167 149 118 103 100 343 280 220 203 237 234 160 112 139 174 186 179 204 268 348 102 119 119 133 139 105 112 122 117 106 81 42 52 63 60 54 43 37 44 41 27
269 275 280 274 260 265 270 264 267 279 232 201 206 225 224 172 177 192 193 171 162 243 267 256 214 158 143 148 167 163 165 170 164 146 138 135 125 120 124 128 131 155 195 159 137 170 200 163 147 142 136 160 274 260 238 256 251 167 130 146 174 178 178 178 161 127 105 116 134 153 152 133 141 162 157 141 125 98 92 81 73 70 52 36 41 42 34
276 274 273 265 258 262 264 261 269 268 217 208 217 259 15 58 159 172 167 144 154 233 255 233 200 191 174 163 151 154 168 171 164 151 147 151 148 144 144 152 146 120 18 35 155 172 206 171 172 166 147 153 246 258 240 253 260 149 127 142 159 165 173 173 162 160 156 151 160 175 182 178 187 200 141 136 138 138 137 114 93 88 57 20 44 56 45
296 276 263 261 260 261 265 268 273 260 216 213 223 252 327 344 170 163 147 128 162 247 275 248 206 196 169 150 146 155 173 179 176 173 170 167 178 180 173 168 165 145 146 248 210 152 136 229 214 168 138 159 229 251 243 247 254 131 133 150 155 158 167 171 170 172 172 173 186 217 223 169 157 139 126 133 142 154 158 166 209 218 248 264 261 72 59
300 275 261 267 272 273 274 271 254 204 186 198 210 225 235 184 158 152 145 144 204 228 257 263 229 185 154 162 170 173 192 202 192 186 179 156 185 202 187 175 193 196 202 231 227 186 195 223 226 193 169 180 219 246 251 244 232 176 168 163 155 160 169 171 177 182 177 177 186 184 80 112 130 142 152 156 160 169 176 211 243 247 246 249 250 296 329
289 274 271 278 280 274 268 246 196 178 178 177 167 167 168 153 139 138 136 126 252 220 191 223 242 197 174 186 183 173 194 209 198 189 184 162 181 214 205 191 206 211 181 213 234 227 211 194 224 230 194 176 207 237 249 236 181 180 185 175 166 174 183 186 190 189 178 177 181 164 146 153 161 167 174 174 172 179 191 209 239 254 257 256 250 309 300
277 282 286 288 277 256 235 195 183 181 177 156 146 146 147 135 120 112 107 72 301 267 208 192 224 215 205 201 172 154 185 200 183 170 176 172 179 205 218 219 216 190 126 220 238 237 203 144 233 244 210 200 231 245 253 237 205 193 191 185 179 186 200 200 193 184 174 175 181 176 174 187 191 186 188 186 179 190 207 211 216 232 243 239 215 243 279
275 284 284 265 217 219 200 176 185 189 155 139 135 134 133 129 123 134 162 185 276 299 294 242 222 217 235 236 140 147 182 193 178 177 191 193 190 194 210 226 217 173 194 229 234 228 161 149 240 252 238 233 253 261 208 223 229 208 195 189 180 188 203 197 177 172 171 175 184 187 192 204 207 200 205 207 198 201 215 216 209 216 230 232 227 239 268
259 238 166 163 199 214 186 156 162 155 141 136 136 136 140 163 192 193 184 193 206 215 249 249 231 201 227 235 145 145 178 189 184 192 197 194 191 191 203 219 208 190 238 236 179 137 185 202 227 252 254 252 261 263 238 229 227 206 197 193 179 184 193 180 170 175 177 182 194 198 201 211 215 213 220 224 214 211 218 217 212 219 232 239 244 257 266
177 151 166 191 216 267 103 135 144 142 136 137 153 184 175 189 212 193 158 187 214 177 192 230 228 200 207 205 167 131 199 204 193 194 194 191 195 195 196 200 181 215 252 240 146 152 236 234 216 241 258 255 251 258 248 229 217 203 192 177 164 173 182 178 183 194 199 207 213 206 205 218 227 225 224 224 217 215 217 215 217 228 236 243 249 255 260
147 153 176 191 151 39 114 136 139 139 143 163 195 212 186 192 217 201 161 197 215 187 181 213 207 189 221 225 185 157 190 232 211 199 185 172 174 200 198 187 165 213 244 236 154 167 248 255 226 236 257 255 143 110 112 179 193 185 172 160 154 160 173 178 184 191 191 172 155 169 182 200 217 215 214 214 216 220 220 217 224 236 248 255 258 260 265
166 184 187 141 124 128 138 141 144 160 200 188 178 197 200 186 190 195 203 216 213 186 168 196 188 175 200 231 209 166 159 243 285 242 182 154 154 222 212 179 154 236 244 223 130 172 241 257 248 250 267 74 101 108 111 120 126 125 136 147 148 151 162 165 163 163 159 140 123 123 129 130 133 151 173 189 214 235 245 247 250 258 263 265 266 267 270
177 163 127 117 128 140 147 152 168 198 199 181 169 195 213 205 191 200 215 228 224 174 167 192 195 158 161 181 185 135 131 166 234 220 187 157 158 224 216 177 189 236 241 123 118 207 237 248 257 261 137 104 111 119 120 118 113 110 116 126 133 140 145 142 134 130 129 123 115 111 113 116 115 117 125 161 220 248 263 271 273 274 274 274 274 273 272
153 138 126 122 131 157 176 179 174 163 163 170 164 173 198 214 214 207 206 210 209 172 164 165 135 108 133 158 149 86 92 162 222 204 181 161 160 200 211 204 216 236 240 99 204 234 238 245 256 261 107 112 124 126 123 120 115 112 112 116 121 126 126 122 117 111 106 105 106 107 110 113 113 117 136 244 268 273 277 278 278 278 279 278 276 275 274
141 136 137 140 151 181 190 184 191 209 195 191 198 201 202 201 201 201 195 179 173 167 164 166 167 156 153 161 164 136 135 181 226 186 155 155 173 189 202 213 215 206 176 223 236 242 244 249 253 203 118 123 130 129 130 130 127 122 118 117 120 121 120 118 117 113 109 108 107 107 109 107 97 311 285 289 291 289 286 284 282 283 283 282 280 278 277
152 144 140 132 134 190 216 177 213 236 217 194 209 223 222 210 198 186 163 132 147 156 157 164 168 154 142 146 170 169 154 166 199 172 147 174 202 203 201 194 187 199 228 239 240 238 238 240 221 150 142 144 138 136 140 140 134 131 128 125 125 124 123 122 120 116 113 109 101 94 85 29 336 315 306 303 301 296 292 290 289 288 286 283 282 280 279
159 132 117 146 164 229 220 174 179 209 203 189 214 231 237 244 188 129 110 105 148 156 153 154 150 143 144 150 165 159 153 165 172 157 152 196 212 205 174 168 209 229 240 243 241 239 239 238 181 132 139 139 138 141 143 140 138 139 136 132 130 127 124 121 116 109 104 96 83 61 23 355 337 320 312 311 306 301 298 294 293 292 290 287 285 284 283
158 129 142 155 145 186 212 202 202 251 227 205 222 232 243 324 48 111 114 136 157 140 137 139 136 136 142 144 129 138 173 189 171 154 171 206 200 159 177 223 227 228 231 232 237 241 239 214 124 120 132 138 142 145 145 144 147 146 138 133 133 130 125 120 113 106 101 96 88 84 63 21 355 336 327 322 316 314 311 305 301 299 296 293 291 289 286
153 156 209 172 157 191 201 185 168 283 277 258 237 224 250 281 220 172 143 145 175 152 150 152 147 140 147 159 156 154 171 186 171 155 173 229 178 152 206 236 237 233 227 228 232 233 207 133 116 123 135 142 146 148 148 151 154 149 141 138 138 134 128 125 119 115 116 115 109 98 70 28 358 337 326 321 317 316 314 310 308 307 303 300 299 297 294
139 155 197 214 234 236 187 93 56 246 245 255 255 227 215 221 208 154 119 137 179 168 158 160 161 152 151 164 168 158 166 186 183 164 177 210 208 196 217 239 240 232 226 227 229 203 118 103 110 128 139 144 147 148 148 151 153 148 143 141 138 134 132 132 129 126 124 117 102 78 36 1 337 323 319 317 313 310 311 315 320 321 318 314 313 309 305
187 238 220 216 238 193 116 109 259 228 203 201 215 221 220 217 192 147 143 166 172 159 153 164 174 149 141 165 188 182 177 185 184 178 194 211 215 213 229 241 242 233 215 203 190 122 109 114 126 137 141 143 147 148 146 145 147 145 142 140 137 136 137 137 134 130 124 110 86 39 1 347 332 322 320 317 309 302 308 333 347 343 335 332 329 325 320
188 250 239 232 240 185 148 169 242 228 197 189 188 193 216 231 164 139 155 168 171 172 175 175 162 140 152 178 191 177 163 173 190 201 212 217 212 217 230 238 241 243 226 169 111 98 111 131 142 145 145 146 148 148 145 144 145 144 142 141 140 139 140 140 136 132 127 118 72 9 354 346 336 328 326 318 298 284 344 21 13 0 351 350 349 345 342
194 213 205 208 237 215 208 241 258 238 207 193 175 181 226 247 92 124 164 181 185 188 186 178 171 174 181 184 172 155 159 189 207 213 217 215 210 227 246 257 283 310 267 177 122 120 131 137 141 146 148 147 145 143 143 144 145 145 146 147 145 143 143 143 142 144 147 138 46 12 3 353 346 356 27 89 111 80 49 36 25 16 12 13 13 9 7